Location: Vista Encantada
(35.1109°N, 106.5681°W)
Time: 08:57:35
(UTC+00:00)

SL-27 R/B - Pass Details

Date: 29 October 2020
Orbit: 420 x 469 km, 74.7° (Epoch: 04 December)

Event Time Altitude Azimuth Distance (km) Brightness Sun altitude
Rises 12:33:41 0° 195° (SSW) 2,478 6.1 -11.1°
Reaches altitude 10° 12:35:45 10° 195° (SSW) 1,613 5.2 -10.7°
Maximum altitude 12:39:19 89° 122° (ESE) 473 2.5 -10.0°
Drops below altitude 10° 12:42:56 10° 17° (NNE) 1,634 5.3 -9.2°
Sets 12:45:03 0° 17° (NNE) 2,515 6.3 -8.8°
